一网星座-0543星 (ONEWEB-0543)

导读

ONEWEB-0543是英国OneWeb公司低轨卫星互联网星座的组成卫星,于2023年1月10日发射入轨。OneWeb星座旨在为全球尤其是偏远基础设施落后区域提供高速宽带接入服务,该卫星运行于近地轨道,依托Ku波段通信技术,助力实现全球覆盖的卫星互联网布局,近年还参与验证了星地一体化5G无缝切换技术,推动全球互联发展。

基本信息
目录编号:
55143
目录名称:
ONEWEB-0543
国际标识:
2023-004D
轨道中心:
EARTH
卫星名称:
一网星座-0543星
卫星全名:
一网星座-0543星 (ONEWEB-0543)
卫星状态:
在轨 (已飞行1341 天)
发射日期:
2023-01-10 UTC
国别 :
英国 (GB)
星等 :
--
该卫星已列入 空间交会检测服务 Space Conjunction Data Service (SCDS) ,当前飞行风险评估等级: 无高风险
轨道信息
数据来源 国际轨道数据
星历时间: 2026-09-11T23:54:52+0800
11小时前
查看轨道信息
半长轴: 7567.876km
偏心率: 0.0002051
轨道倾角: 87.917°
近地点辐角 91.791°
升交点赤经 318.284°
平近点角 268.346°
近地点: 1188.186km
远地点: 1191.292km
周期: 109.200分钟
每日圈数: 13.186871
详细信息
平衡模式:
三轴稳定
覆盖范围:
全球
运营商:
一网卫星公司
运营商所在国:
英国
制造商(研发单位):
一网卫星公司
制造商所在国:
英国
使用方式:
暂无
卫星简介
OneWeb卫星网络由648颗重约125公斤的微型卫星组成,运行在1200公里的轨道上。 每颗卫星都能够提供至少每秒8千兆位的吞吐量,以使用其高吞吐量的Ku频段有效载荷为家庭和移动平台提供互联网接入。该卫星仍在工作。
2D轨道图
3D轨道图
轨道高度分析图
轨道倾角分析图
轨道综合分析图
查看轨道综合分析图
与全量物体交会距离演化趋势
与全量物体交会风险概率演化趋势